QPF
0.15 0.19 0.18 0.21 0.24 0.20 0.19 0.18 0.14 0.11 0.07 0.04 0.03 0.02 0.02 0.02 0.01 0.01 0.01 0.01 0.01 0.01 0.02 0.02 0.02 0.01 0.01 0.01 0.01 0.01 0.01 0.01 0.01 0.01 0.00 0.00 0.00 0.00 0.00 0.00 0.01 0.01 0.01
0.13 0.13 0.12 0.12 0.16 0.14 0.12 0.14 0.11 0.08 0.05 0.04 0.03 0.03 0.02 0.02 0.01 0.00 0.00 0.00 0.00 0.01 0.02 0.02 0.01 0.00 0.00 0.00 0.00 0.00 0.01 0.01 0.01 0.01 0.00 0.00 0.00 0.00 0.00 0.00 0.01 0.01 0.01
0.11 0.09 0.08 0.08 0.08 0.09 0.08 0.08 0.07 0.06 0.06 0.06 0.04 0.03 0.02 0.01 0.01 0.00 0.00 0.00 0.01 0.02 0.02 0.02 0.01 0.00 0.00 0.00 0.00 0.01 0.00 0.00 0.00 0.00 0.00 0.00 0.00 0.00 0.00 0.00 0.00 0.01 0.00
0.08 0.07 0.07 0.07 0.06 0.06 0.07 0.06 0.05 0.05 0.05 0.05 0.03 0.02 0.01 0.00 0.00 0.00 0.00 0.00 0.00 0.01 0.01 0.01 0.00 0.00 0.00 0.00 0.01 0.01 0.00 0.00 0.00 0.00 0.00 0.00 0.00 0.00 0.00 0.00 0.00 0.00 0.00
0.04 0.04 0.04 0.05 0.06 0.06 0.05 0.05 0.04 0.03 0.03 0.02 0.02 0.01 0.00 0.00 0.00 0.00 0.00 0.00 0.00 0.00 0.00 0.00 0.00 0.00 0.00 0.00 0.00 0.00 0.00 0.00 0.00 0.00 0.00 0.00 0.00 0.00 0.00 0.00 0.00 0.00 0.00
0.03 0.03 0.03 0.03 0.04 0.04 0.04 0.03 0.01 0.01 0.01 0.01 0.01 0.00 0.00 0.00 0.00 0.00 0.00 0.00 0.00 0.00 0.00 0.00 0.00 0.00 0.00 0.00 0.00 0.00 0.00 0.00 0.00 0.00 0.00 0.00 0.00 0.00 0.00 0.00 0.00 0.00 0.00
0.03 0.01 0.01 0.01 0.01 0.02 0.02 0.01 0.00 0.00 0.01 0.01 0.01 0.00 0.00 0.00 0.00 0.00 0.00 0.00 0.00 0.00 0.00 0.00 0.00 0.00 0.00 0.00 0.00 0.00 0.00 0.00 0.00 0.00 0.00 0.00 0.00 0.00 0.00 0.00 0.00 0.00 0.00
0.02 0.01 0.01 0.00 0.00 0.01 0.01 0.01 0.00 0.00 0.00 0.00 0.01 0.00 0.00 0.00 0.00 0.00 0.00 0.00 0.00 0.00 0.00 0.00 0.00 0.00 0.00 0.00 0.00 0.00 0.00 0.00 0.00 0.00 0.00 0.00 0.00 0.00 0.00 0.00 0.00 0.00 0.00
0.01 0.00 0.00 0.00 0.00 0.00 0.00 0.00 0.00 0.00 0.00 0.00 0.00 0.00 0.00 0.00 0.00 0.00 0.00 0.00 0.00 0.00 0.00 0.00 0.00 0.00 0.00 0.00 0.00 0.00 0.00 0.00 0.00 0.00 0.00 0.00 0.00 0.00 0.00 0.00 0.00 0.00 0.00
0.00 0.00 0.00 0.00 0.00 0.00 0.00 0.00 0.00 0.00 0.00 0.00 0.00 0.00 0.00 0.00 0.00 0.00 0.00 0.00 0.00 0.00 0.00 0.00 0.00 0.00 0.00 0.00 0.00 0.00 0.00 0.00 0.00 0.00 0.00 0.00 0.00 0.00 0.00 0.00 0.00 0.00 0.00
0.00 0.00 0.00 0.00 0.00 0.00 0.00 0.00 0.00 0.00 0.00 0.00 0.00 0.00 0.00 0.00 0.00 0.00 0.00 0.00 0.00 0.00 0.00 0.00 0.00 0.00 0.00 0.00 0.00 0.00 0.00 0.00 0.00 0.00 0.00 0.00 0.00 0.00 0.00 0.00 0.00 0.00 0.00
0.00 0.00 0.00 0.00 0.00 0.00 0.00 0.00 0.00 0.00 0.00 0.00 0.00 0.00 0.00 0.00 0.00 0.00 0.00 0.00 0.00 0.00 0.00 0.00 0.00 0.00 0.00 0.00 0.00 0.00 0.00 0.00 0.00 0.00 0.00 0.00 0.00 0.00 0.00 0.00 0.00 0.00 0.00
0.00 0.00 0.00 0.00 0.00 0.00 0.00 0.00 0.00 0.00 0.00 0.00 0.00 0.00 0.00 0.00 0.00 0.00 0.00 0.00 0.00 0.00 0.00 0.00 0.00 0.00 0.00 0.00 0.00 0.00 0.00 0.00 0.00 0.00 0.00 0.00 0.00 0.00 0.00 0.00 0.00 0.00 0.00
0.00 0.00 0.00 0.00 0.00 0.00 0.00 0.00 0.00 0.00 0.00 0.00 0.00 0.00 0.00 0.00 0.00 0.00 0.00 0.00 0.00 0.00 0.00 0.00 0.00 0.00 0.00 0.00 0.00 0.00 0.00 0.00 0.00 0.00 0.00 0.00 0.00 0.00 0.00 0.00 0.00 0.00 0.00
0.00 0.00 0.00 0.00 0.00 0.00 0.00 0.00 0.00 0.00 0.00 0.00 0.00 0.00 0.00 0.00 0.00 0.00 0.00 0.00 0.00 0.00 0.00 0.00 0.00 0.00 0.00 0.00 0.00 0.00 0.00 0.00 0.00 0.00 0.00 0.00 0.00 0.00 0.00 0.00 0.00 0.00 0.00
0.00 0.00 0.00 0.00 0.00 0.00 0.00 0.00 0.00 0.00 0.00 0.00 0.00 0.00 0.00 0.00 0.00 0.00 0.00 0.00 0.00 0.00 0.00 0.00 0.00 0.00 0.00 0.00 0.00 0.00 0.00 0.00 0.00 0.00 0.00 0.00 0.00 0.00 0.00 0.00 0.00 0.00 0.00
0.01 0.01 0.00 0.00 0.01 0.00 0.00 0.00 0.00 0.00 0.01 0.01 0.00 0.00 0.00 0.00 0.00 0.00 0.00 0.01 0.01 0.00 0.00 0.00 0.00 0.00 0.00 0.00 0.00 0.00 0.00 0.00 0.00 0.00 0.00 0.00 0.00 0.00 0.00 0.00 0.00 0.00 0.00
0.01 0.01 0.01 0.01 0.01 0.01 0.01 0.01 0.01 0.01 0.01 0.01 0.01 0.01 0.01 0.01 0.01 0.01 0.00 0.01 0.00 0.00 0.00 0.00 0.00 0.00 0.00 0.00 0.00 0.00 0.00 0.00 0.00 0.00 0.00 0.00 0.00 0.00 0.00 0.00 0.00 0.00 0.00
0.01 0.01 0.01 0.01 0.01 0.01 0.01 0.02 0.02 0.02 0.02 0.02 0.02 0.01 0.01 0.00 0.00 0.00 0.00 0.00 0.00 0.00 0.00 0.00 0.00 0.00 0.00 0.00 0.00 0.00 0.00 0.00 0.00 0.00 0.00 0.00 0.00 0.00 0.00 0.00 0.00 0.00 0.00
0.02 0.02 0.01 0.01 0.01 0.01 0.01 0.01 0.01 0.01 0.01 0.01 0.00 0.00 0.00 0.00 0.00 0.00 0.00 0.00 0.00 0.00 0.00 0.00 0.00 0.00 0.00 0.00 0.00 0.00 0.00 0.00 0.00 0.00 0.00 0.00 0.00 0.00 0.00 0.00 0.00 0.00 0.00
0.03 0.02 0.01 0.01 0.01 0.01 0.01 0.01 0.01 0.01 0.01 0.01 0.00 0.00 0.01 0.01 0.00 0.00 0.01 0.00 0.01 0.00 0.00 0.00 0.00 0.00 0.00 0.00 0.01 0.01 0.01 0.00 0.00 0.00 0.00 0.00 0.00 0.00 0.00 0.00 0.00 0.00 0.00
0.03 0.03 0.02 0.02 0.02 0.02 0.01 0.01 0.01 0.01 0.01 0.01 0.01 0.01 0.01 0.01 0.00 0.00 0.00 0.00 0.00 0.00 0.00 0.00 0.00 0.00 0.00 0.00 0.00 0.01 0.01 0.00 0.00 0.00 0.00 0.00 0.00 0.00 0.00 0.00 0.00 0.00 0.00
0.02 0.02 0.02 0.02 0.01 0.01 0.01 0.01 0.02 0.03 0.03 0.03 0.02 0.02 0.01 0.01 0.01 0.00 0.00 0.00 0.00 0.00 0.00 0.00 0.00 0.00 0.00 0.00 0.00 0.00 0.00 0.00 0.00 0.00 0.00 0.00 0.00 0.00 0.00 0.00 0.00 0.00 0.00
0.02 0.02 0.01 0.01 0.02 0.02 0.02 0.03 0.04 0.04 0.04 0.03 0.03 0.03 0.02 0.02 0.01 0.01 0.00 0.00 0.00 0.00 0.00 0.00 0.00 0.00 0.00 0.00 0.00 0.00 0.00 0.00 0.00 0.00 0.00 0.00 0.00 0.00 0.00 0.00 0.00 0.00 0.00
0.02 0.02 0.02 0.03 0.02 0.03 0.03 0.04 0.04 0.04 0.04 0.03 0.03 0.03 0.02 0.02 0.01 0.01 0.01 0.01 0.01 0.01 0.00 0.00 0.00 0.00 0.00 0.00 0.00 0.00 0.00 0.00 0.00 0.00 0.00 0.00 0.00 0.00 0.00 0.00 0.00 0.00 0.00
0.02 0.02 0.03 0.04 0.04 0.05 0.05 0.05 0.04 0.03 0.03 0.03 0.02 0.02 0.02 0.02 0.01 0.01 0.00 0.00 0.00 0.00 0.00 0.00 0.00 0.00 0.00 0.00 0.00 0.00 0.00 0.00 0.00 0.00 0.00 0.00 0.00 0.00 0.00 0.01 0.01 0.00 0.00
MSLP
1013.86 1014.04 1014.21 1014.35 1014.46 1014.56 1014.66 1014.80 1014.99 1015.24 1015.54 1015.88 1016.21 1016.50 1016.74 1016.91 1017.01 1017.07 1017.10 1017.16 1017.26 1017.42 1017.66 1017.96 1018.32 1018.69 1019.06 1019.40 1019.69 1019.93 1020.10 1020.22 1020.28 1020.29 1020.26 1020.18 1020.06 1019.89 1019.68 1019.44 1019.19 1018.92 1018.66
1013.90 1014.08 1014.23 1014.35 1014.43 1014.49 1014.57 1014.70 1014.91 1015.21 1015.56 1015.96 1016.34 1016.68 1016.93 1017.09 1017.16 1017.18 1017.18 1017.20 1017.28 1017.44 1017.69 1018.00 1018.36 1018.73 1019.08 1019.39 1019.64 1019.84 1019.98 1020.09 1020.16 1020.21 1020.23 1020.22 1020.15 1020.04 1019.87 1019.64 1019.36 1019.06 1018.76
1013.86 1014.05 1014.20 1014.31 1014.36 1014.40 1014.46 1014.59 1014.83 1015.16 1015.58 1016.03 1016.48 1016.87 1017.15 1017.32 1017.39 1017.38 1017.35 1017.35 1017.41 1017.55 1017.78 1018.08 1018.42 1018.76 1019.07 1019.33 1019.53 1019.69 1019.80 1019.90 1019.99 1020.07 1020.15 1020.21 1020.22 1020.17 1020.04 1019.84 1019.58 1019.27 1018.93
1013.75 1013.96 1014.13 1014.24 1014.29 1014.32 1014.37 1014.50 1014.75 1015.12 1015.58 1016.10 1016.61 1017.05 1017.39 1017.58 1017.66 1017.66 1017.62 1017.59 1017.63 1017.75 1017.95 1018.22 1018.52 1018.81 1019.07 1019.27 1019.42 1019.53 1019.62 1019.70 1019.81 1019.93 1020.07 1020.19 1020.27 1020.29 1020.21 1020.05 1019.81 1019.51 1019.16
1013.60 1013.85 1014.05 1014.18 1014.24 1014.27 1014.32 1014.45 1014.71 1015.10 1015.60 1016.16 1016.72 1017.22 1017.60 1017.84 1017.95 1017.96 1017.93 1017.90 1017.92 1018.01 1018.18 1018.40 1018.65 1018.89 1019.10 1019.25 1019.35 1019.42 1019.48 1019.56 1019.68 1019.83 1020.01 1020.18 1020.31 1020.38 1020.36 1020.23 1020.02 1019.73 1019.39
1013.41 1013.72 1013.98 1014.15 1014.23 1014.27 1014.33 1014.46 1014.71 1015.10 1015.62 1016.21 1016.81 1017.35 1017.78 1018.06 1018.21 1018.26 1018.24 1018.22 1018.23 1018.30 1018.44 1018.62 1018.82 1019.01 1019.16 1019.27 1019.33 1019.37 1019.42 1019.49 1019.61 1019.78 1019.98 1020.17 1020.34 1020.44 1020.44 1020.34 1020.14 1019.87 1019.55
1013.21 1013.59 1013.92 1014.14 1014.27 1014.33 1014.39 1014.52 1014.76 1015.15 1015.65 1016.24 1016.85 1017.42 1017.89 1018.22 1018.42 1018.50 1018.52 1018.52 1018.53 1018.59 1018.70 1018.85 1019.01 1019.15 1019.26 1019.33 1019.36 1019.38 1019.41 1019.48 1019.60 1019.76 1019.95 1020.15 1020.31 1020.41 1020.42 1020.33 1020.15 1019.89 1019.59
1012.99 1013.44 1013.84 1014.13 1014.31 1014.41 1014.49 1014.62 1014.85 1015.21 1015.69 1016.26 1016.87 1017.44 1017.93 1018.29 1018.53 1018.66 1018.71 1018.74 1018.76 1018.82 1018.92 1019.04 1019.17 1019.28 1019.36 1019.40 1019.42 1019.42 1019.44 1019.49 1019.59 1019.73 1019.89 1020.06 1020.20 1020.28 1020.27 1020.18 1020.01 1019.77 1019.49
1012.72 1013.24 1013.72 1014.08 1014.32 1014.47 1014.58 1014.71 1014.93 1015.27 1015.72 1016.26 1016.84 1017.40 1017.89 1018.28 1018.54 1018.71 1018.80 1018.86 1018.90 1018.97 1019.06 1019.17 1019.28 1019.37 1019.43 1019.45 1019.45 1019.44 1019.44 1019.47 1019.54 1019.64 1019.76 1019.88 1019.98 1020.02 1020.00 1019.90 1019.74 1019.52 1019.27
1012.37 1012.95 1013.49 1013.92 1014.23 1014.44 1014.59 1014.75 1014.97 1015.30 1015.72 1016.23 1016.78 1017.31 1017.79 1018.18 1018.46 1018.66 1018.78 1018.86 1018.93 1019.01 1019.11 1019.21 1019.31 1019.38 1019.43 1019.44 1019.43 1019.40 1019.38 1019.37 1019.40 1019.46 1019.53 1019.59 1019.64 1019.65 1019.60 1019.50 1019.35 1019.16 1018.95
1011.92 1012.53 1013.12 1013.60 1013.98 1014.25 1014.46 1014.67 1014.92 1015.25 1015.67 1016.15 1016.66 1017.17 1017.63 1018.01 1018.30 1018.50 1018.65 1018.76 1018.85 1018.94 1019.05 1019.15 1019.24 1019.31 1019.34 1019.34 1019.30 1019.26 1019.21 1019.17 1019.16 1019.16 1019.18 1019.21 1019.21 1019.19 1019.13 1019.03 1018.90 1018.75 1018.58
1011.35 1011.97 1012.57 1013.10 1013.53 1013.88 1014.17 1014.44 1014.75 1015.12 1015.54 1016.02 1016.51 1016.99 1017.42 1017.78 1018.07 1018.28 1018.44 1018.56 1018.68 1018.78 1018.89 1019.00 1019.08 1019.14 1019.15 1019.13 1019.08 1019.01 1018.93 1018.86 1018.80 1018.77 1018.75 1018.73 1018.71 1018.67 1018.62 1018.54 1018.44 1018.32 1018.20
1010.69 1011.28 1011.88 1012.42 1012.90 1013.32 1013.69 1014.06 1014.44 1014.87 1015.33 1015.82 1016.31 1016.77 1017.18 1017.52 1017.79 1018.00 1018.17 1018.30 1018.43 1018.55 1018.67 1018.77 1018.85 1018.89 1018.89 1018.84 1018.76 1018.66 1018.55 1018.44 1018.35 1018.29 1018.24 1018.21 1018.18 1018.14 1018.10 1018.04 1017.97 1017.89 1017.81
1009.98 1010.51 1011.06 1011.60 1012.11 1012.59 1013.06 1013.53 1014.01 1014.51 1015.04 1015.56 1016.06 1016.51 1016.90 1017.23 1017.49 1017.69 1017.86 1018.00 1018.14 1018.27 1018.39 1018.49 1018.55 1018.58 1018.55 1018.47 1018.36 1018.22 1018.08 1017.94 1017.83 1017.75 1017.69 1017.65 1017.63 1017.60 1017.58 1017.55 1017.50 1017.46 1017.40
1009.27 1009.71 1010.20 1010.71 1011.23 1011.77 1012.32 1012.89 1013.47 1014.07 1014.66 1015.23 1015.75 1016.21 1016.60 1016.91 1017.16 1017.36 1017.52 1017.68 1017.82 1017.96 1018.08 1018.17 1018.22 1018.22 1018.16 1018.05 1017.90 1017.72 1017.55 1017.39 1017.26 1017.17 1017.11 1017.08 1017.07 1017.06 1017.06 1017.04 1017.02 1016.98 1016.93
1008.61 1008.94 1009.35 1009.81 1010.34 1010.91 1011.53 1012.19 1012.87 1013.56 1014.23 1014.85 1015.40 1015.87 1016.26 1016.57 1016.81 1017.00 1017.17 1017.33 1017.48 1017.62 1017.74 1017.83 1017.85 1017.82 1017.73 1017.58 1017.39 1017.18 1016.97 1016.79 1016.65 1016.56 1016.50 1016.49 1016.49 1016.50 1016.51 1016.51 1016.48 1016.44 1016.38
1008.05 1008.27 1008.58 1008.99 1009.49 1010.09 1010.76 1011.49 1012.25 1013.01 1013.74 1014.41 1015.00 1015.48 1015.88 1016.18 1016.42 1016.62 1016.80 1016.96 1017.12 1017.26 1017.38 1017.45 1017.45 1017.39 1017.26 1017.07 1016.84 1016.59 1016.36 1016.16 1016.02 1015.92 1015.88 1015.88 1015.90 1015.92 1015.93 1015.91 1015.88 1015.81 1015.72
1007.62 1007.73 1007.95 1008.29 1008.76 1009.35 1010.05 1010.82 1011.63 1012.45 1013.23 1013.93 1014.54 1015.04 1015.44 1015.75 1015.99 1016.20 1016.38 1016.56 1016.72 1016.86 1016.97 1017.02 1017.00 1016.91 1016.74 1016.51 1016.24 1015.97 1015.72 1015.51 1015.36 1015.27 1015.24 1015.25 1015.27 1015.29 1015.29 1015.26 1015.19 1015.09 1014.96
1007.33 1007.34 1007.48 1007.76 1008.18 1008.75 1009.44 1010.22 1011.06 1011.89 1012.69 1013.40 1014.02 1014.52 1014.93 1015.25 1015.50 1015.72 1015.91 1016.09 1016.26 1016.40 1016.50 1016.53 1016.49 1016.36 1016.16 1015.90 1015.61 1015.31 1015.05 1014.84 1014.69 1014.62 1014.59 1014.60 1014.63 1014.64 1014.63 1014.56 1014.46 1014.31 1014.13
1007.18 1007.13 1007.19 1007.40 1007.77 1008.30 1008.96 1009.72 1010.54 1011.36 1012.14 1012.84 1013.45 1013.95 1014.36 1014.68 1014.94 1015.17 1015.37 1015.56 1015.73 1015.87 1015.95 1015.96 1015.89 1015.74 1015.51 1015.23 1014.92 1014.62 1014.36 1014.16 1014.02 1013.96 1013.94 1013.96 1013.98 1013.98 1013.94 1013.84 1013.70 1013.50 1013.28
1007.19 1007.08 1007.08 1007.24 1007.55 1008.02 1008.62 1009.33 1010.10 1010.87 1011.61 1012.28 1012.86 1013.35 1013.74 1014.07 1014.33 1014.57 1014.78 1014.97 1015.13 1015.25 1015.32 1015.31 1015.21 1015.04 1014.79 1014.50 1014.19 1013.90 1013.65 1013.47 1013.35 1013.30 1013.30 1013.33 1013.34 1013.33 1013.26 1013.13 1012.94 1012.71 1012.44
1007.35 1007.21 1007.18 1007.28 1007.53 1007.93 1008.46 1009.09 1009.78 1010.48 1011.15 1011.76 1012.29 1012.75 1013.12 1013.44 1013.70 1013.93 1014.14 1014.32 1014.47 1014.57 1014.61 1014.57 1014.45 1014.26 1014.01 1013.72 1013.42 1013.15 1012.93 1012.77 1012.69 1012.66 1012.68 1012.71 1012.72 1012.69 1012.60 1012.44 1012.22 1011.95 1011.65
1007.69 1007.54 1007.48 1007.54 1007.73 1008.06 1008.50 1009.03 1009.62 1010.21 1010.79 1011.33 1011.80 1012.21 1012.55 1012.84 1013.09 1013.31 1013.50 1013.66 1013.78 1013.85 1013.85 1013.78 1013.63 1013.42 1013.17 1012.89 1012.61 1012.37 1012.19 1012.07 1012.02 1012.02 1012.05 1012.09 1012.10 1012.05 1011.94 1011.76 1011.51 1011.21 1010.89
1008.20 1008.06 1008.00 1008.03 1008.17 1008.41 1008.76 1009.18 1009.64 1010.13 1010.60 1011.04 1011.44 1011.79 1012.09 1012.35 1012.57 1012.76 1012.92 1013.04 1013.12 1013.13 1013.09 1012.97 1012.79 1012.56 1012.29 1012.03 1011.78 1011.58 1011.43 1011.36 1011.34 1011.37 1011.41 1011.45 1011.45 1011.39 1011.26 1011.06 1010.79 1010.47 1010.14
1008.89 1008.77 1008.71 1008.72 1008.81 1008.99 1009.23 1009.54 1009.88 1010.24 1010.60 1010.94 1011.26 1011.54 1011.79 1012.00 1012.18 1012.33 1012.44 1012.51 1012.52 1012.47 1012.35 1012.18 1011.95 1011.69 1011.42 1011.15 1010.93 1010.75 1010.65 1010.61 1010.62 1010.67 1010.72 1010.76 1010.75 1010.68 1010.53 1010.31 1010.02 1009.70 1009.35
1009.70 1009.63 1009.58 1009.58 1009.63 1009.73 1009.89 1010.08 1010.31 1010.55 1010.80 1011.04 1011.27 1011.48 1011.67 1011.84 1011.97 1012.06 1012.11 1012.10 1012.03 1011.90 1011.70 1011.45 1011.16 1010.86 1010.56 1010.29 1010.07 1009.92 1009.83 1009.81 1009.85 1009.90 1009.96 1009.99 1009.96 1009.88 1009.71 1009.47 1009.18 1008.85 1008.50
Thickness
5718 5721 5723 5724 5724 5723 5722 5723 5723 5722 5721 5719 5718 5716 5714 5714 5713 5712 5712 5711 5710 5709 5707 5705 5702 5701 5699 5697 5696 5694 5692 5691 5690 5690 5690 5692 5694 5695 5696 5697 5698 5699 5700
5717 5719 5720 5722 5722 5721 5721 5722 5721 5720 5720 5719 5718 5716 5714 5712 5711 5710 5709 5709 5708 5706 5705 5703 5700 5698 5696 5693 5692 5690 5687 5686 5685 5683 5681 5680 5683 5687 5689 5690 5691 5692 5693
5718 5719 5720 5720 5721 5720 5721 5722 5721 5719 5719 5719 5717 5715 5712 5710 5708 5707 5706 5706 5705 5704 5703 5700 5698 5696 5693 5690 5688 5686 5684 5680 5679 5678 5676 5672 5671 5674 5679 5681 5683 5684 5685
5722 5721 5721 5721 5721 5722 5723 5722 5721 5719 5719 5718 5716 5713 5709 5706 5705 5705 5704 5704 5703 5702 5700 5698 5696 5693 5690 5688 5685 5683 5680 5677 5674 5673 5671 5669 5668 5666 5667 5672 5674 5676 5677
5724 5723 5724 5724 5724 5724 5722 5721 5721 5719 5718 5717 5715 5712 5709 5706 5704 5703 5702 5701 5700 5699 5698 5696 5693 5690 5687 5685 5682 5679 5676 5673 5670 5668 5666 5664 5662 5660 5659 5659 5663 5666 5669
5728 5727 5727 5726 5725 5724 5722 5721 5720 5718 5717 5715 5714 5712 5709 5705 5703 5701 5699 5698 5697 5696 5694 5693 5690 5688 5684 5682 5679 5676 5673 5670 5667 5664 5661 5659 5657 5655 5653 5652 5653 5654 5659
5732 5729 5727 5726 5725 5724 5723 5721 5719 5717 5716 5714 5713 5711 5708 5705 5703 5700 5698 5696 5694 5693 5692 5690 5687 5684 5682 5679 5675 5672 5669 5666 5663 5660 5657 5654 5652 5650 5648 5646 5645 5646 5649
5735 5734 5732 5730 5728 5726 5724 5722 5719 5717 5715 5714 5712 5710 5707 5705 5702 5700 5697 5695 5693 5691 5690 5688 5685 5682 5679 5676 5672 5669 5666 5662 5659 5656 5652 5649 5647 5645 5643 5641 5639 5638 5639
5738 5736 5735 5732 5730 5728 5726 5724 5721 5718 5716 5713 5711 5708 5706 5704 5701 5698 5696 5694 5692 5690 5688 5685 5682 5679 5676 5672 5669 5665 5662 5658 5655 5651 5648 5644 5642 5639 5637 5635 5633 5631 5631
5740 5738 5737 5735 5733 5731 5728 5725 5722 5719 5716 5713 5710 5708 5705 5703 5700 5697 5694 5692 5690 5688 5685 5682 5678 5675 5672 5669 5665 5662 5658 5654 5651 5647 5643 5640 5637 5634 5631 5628 5626 5624 5623
5744 5742 5740 5738 5735 5732 5728 5725 5721 5718 5714 5712 5709 5707 5704 5701 5698 5695 5693 5691 5688 5685 5682 5679 5675 5672 5669 5665 5661 5658 5654 5650 5646 5642 5638 5635 5631 5628 5625 5622 5619 5617 5616
5749 5746 5742 5738 5735 5731 5728 5725 5722 5718 5715 5712 5709 5705 5702 5699 5695 5693 5691 5688 5685 5682 5679 5675 5672 5669 5665 5662 5657 5654 5650 5646 5641 5638 5633 5630 5626 5622 5619 5615 5613 5611 5610
5748 5745 5741 5738 5735 5732 5729 5726 5723 5719 5716 5711 5707 5703 5699 5696 5694 5691 5689 5685 5682 5679 5676 5672 5669 5665 5662 5658 5654 5650 5646 5642 5637 5633 5629 5625 5621 5617 5613 5610 5607 5605 5604
5748 5745 5742 5740 5738 5735 5731 5727 5723 5720 5715 5710 5705 5701 5698 5695 5693 5689 5686 5683 5679 5676 5673 5669 5666 5662 5659 5655 5651 5646 5642 5638 5633 5629 5624 5620 5616 5612 5608 5605 5601 5599 5597
5747 5746 5744 5741 5738 5734 5731 5728 5724 5719 5715 5709 5704 5701 5698 5694 5690 5686 5683 5680 5677 5673 5670 5666 5662 5659 5655 5652 5648 5643 5639 5634 5629 5625 5620 5616 5611 5608 5604 5600 5597 5593 5591
5750 5749 5746 5743 5739 5736 5733 5728 5723 5719 5713 5708 5704 5700 5695 5691 5688 5684 5681 5677 5673 5670 5666 5662 5658 5655 5652 5649 5644 5639 5634 5629 5624 5620 5616 5611 5607 5604 5600 5596 5593 5589 5586
5752 5750 5748 5746 5743 5740 5736 5729 5724 5717 5711 5706 5702 5697 5693 5689 5685 5682 5677 5673 5670 5666 5662 5658 5654 5650 5648 5644 5640 5635 5630 5625 5620 5615 5611 5607 5604 5599 5595 5591 5588 5585 5583
5752 5751 5749 5746 5744 5740 5734 5728 5721 5714 5708 5703 5699 5695 5690 5686 5682 5677 5674 5670 5665 5661 5657 5654 5650 5646 5643 5640 5635 5631 5625 5621 5616 5612 5607 5602 5598 5594 5590 5586 5583 5580 5578
5755 5753 5750 5746 5741 5735 5729 5722 5715 5709 5704 5700 5696 5693 5688 5683 5678 5673 5670 5666 5661 5657 5653 5649 5645 5641 5639 5635 5631 5626 5620 5616 5613 5609 5603 5598 5594 5591 5585 5580 5578 5576 5574
5750 5747 5743 5738 5733 5729 5723 5716 5710 5704 5701 5699 5696 5691 5686 5680 5675 5671 5666 5661 5657 5653 5649 5645 5641 5637 5634 5632 5627 5621 5616 5611 5608 5604 5600 5595 5590 5586 5580 5575 5572 5570 5570
5742 5740 5736 5732 5729 5724 5718 5710 5705 5702 5702 5697 5691 5686 5681 5676 5671 5666 5662 5656 5651 5647 5643 5639 5637 5633 5630 5627 5623 5617 5611 5607 5603 5599 5596 5592 5587 5581 5576 5571 5568 5567 5564
5733 5732 5729 5725 5721 5717 5710 5704 5701 5701 5696 5690 5684 5679 5675 5671 5667 5660 5656 5650 5645 5640 5637 5633 5631 5629 5626 5622 5618 5614 5608 5603 5597 5595 5592 5588 5582 5576 5571 5567 5564 5561 5556
5723 5722 5719 5714 5710 5708 5704 5699 5697 5692 5687 5681 5676 5672 5668 5663 5659 5654 5649 5644 5639 5634 5631 5628 5625 5624 5621 5617 5613 5608 5604 5598 5593 5591 5587 5582 5576 5571 5567 5563 5560 5555 5552
5711 5710 5708 5704 5700 5698 5697 5694 5689 5684 5679 5673 5668 5663 5659 5655 5651 5646 5642 5638 5633 5629 5625 5622 5620 5618 5615 5611 5608 5603 5599 5594 5589 5585 5581 5575 5569 5565 5561 5558 5555 5552 5549
5700 5699 5697 5694 5690 5687 5685 5682 5679 5675 5670 5665 5660 5655 5651 5647 5643 5639 5635 5632 5629 5626 5621 5619 5615 5611 5609 5608 5603 5597 5593 5588 5583 5577 5572 5567 5563 5560 5558 5555 5552 5549 5545
5687 5686 5684 5682 5679 5676 5673 5671 5669 5665 5660 5655 5650 5645 5641 5637 5634 5630 5627 5625 5622 5619 5614 5611 5607 5605 5603 5600 5595 5589 5584 5579 5573 5567 5565 5563 5560 5556 5554 5551 5548 5545 5542